Погода в Фанранг-Тхаптям

Вьетнам     11°33′50″N   109°00′38″E
темп.,
°C
ветер,
м/с
пор.,
м/с
влажн.,
%
обл.,
%
осадки,
мм/ч
давл.,
гПа
погр.,
м
19 сентября, вс
вс1901:00+26зсз2279100 0.6 1008108
04:00+25с2285100 0.9 1008140
07:00+23зсз2496100 10.1 1009190
10:00+24сз2293100 4.5 1011201
13:00+25зсз1289100 5.3 1008294
16:00+25с1186100 0.1 1007219
19:00+25юз0087100 0.1 1009108
22:00+24з118883 0.0 1011121
20 сентября, пн
пн2001:00+23зсз229145 0.0 1009107
04:00+23зсз2290100 0.0 100885
07:00+25з228588 0.0 1009172
10:00+28ю2371100 0.0 1009709
13:00+29ююв437091 0.1 1007780
16:00+28ю3376100 0.6 1006546
19:00+26ююз238263 0.7 1008224
22:00+25з228862 0.4 1010110
21 сентября, вт
вт2101:00+24сз1189100 1.3 100873
04:00+24зсз2289100 0.1 100788
07:00+25зсз228486 0.1 1009180
10:00+28ю1271100 1.0 1009624
13:00+29ю2374100 3.4 1006710
16:00+28ююз3378100 5.4 1005520
19:00+25юз3489100 12.8 1007185
22:00+25юз459091 4.7 1009241
22 сентября, ср
ср2201:00+24зюз3491100 6.3 1007192
04:00+24зюз2391100 0.5 1007145
07:00+25з228692 0.5 1008190
10:00+29ю227398 0.0 1008689
13:00+29ю337853 3.3 1006608
16:00+27ююз2384100 8.3 1006267
19:00+25зюз2389100 15.9 1008156
22:00+25з229099 1.1 1009100
23 сентября, чт
чт2301:00+25з229099 2.0 1007104
04:00+25зсз2287100 0.5 100783
07:00+26ссз008399 0.7 1009124
10:00+28ююв117395 0.0 1009557
13:00+27вюв3382100 1.9 1007404
16:00+25вюв2491100 6.2 1007170
19:00+24сз1297100 23.1 1009152
22:00+24зсз2397100 16.3 1010182